Regional Weather Roundup
Issued by NWS

Home | Current Version | Previous Version | Text Only | Print | Product List | Glossary On
Versions: 1 2 3 4 5 6 7 8 9 10 11 12 13 14 15 16 17 18 19 20 21 22 23 24 25 26 27 28 29 30 31 32 33 34 35 36 37 38 39 40 41 42 43 44 45 46 47 48 49 50
461
ASUS44 KJAN 272310
RWRMS

MISSISSIPPI HOURLY WEATHER ROUNDUP
NATIONAL WEATHER SERVICE JACKSON MS
500 PM CST THU NOV 27 2014

NOTE: "FAIR: INDICATES FEW OR NO CLOUDS BELOW 12,000 FEET WITH NO
SIGNIFICANT WEATHER AND/OR OBSTRUCTIONS TO VISIBILITY.

MSZ001>002-007>008-010>013-018>021-025>028-034>036-280000-
NORTHWEST MISSISSIPPI

CITY           SKY/WX    TMP DP  RH WIND       PRES   REMARKS
CLARKSDALE     FAIR      41  32  70 NE3       30.50R
CLEVELAND      FAIR      43  35  73 CALM      30.48F
GREENWOOD      CLEAR     43  29  57 CALM      30.48F
GREENVILLE     CLEAR     44  31  60 E6        30.48F
GRENADA        FAIR      41  30  65 NW3       30.47S
OLIVE BRANCH   PTCLDY    37  30  75 N6        30.48R WCI  33
OXFORD         FAIR      39  27  60 CALM      30.48S
TUNICA         CLEAR     41  32  70 NE3       30.49S
$$

MSZ003>006-009-014>017-022>024-029>033-037>039-280000-
NORTHEAST MISSISSIPPI

CITY           SKY/WX    TMP DP  RH WIND       PRES   REMARKS
COLUMBUS AFB   PTCLDY    40  28  60 NW6       30.47R
CORINTH        CLOUDY    39  27  60 CALM      30.47S
GOLDN TRIANGLE PTCLDY    39  28  65 N5        30.46S
STARKVILLE     FAIR      41  32  70 CALM      30.47R
TUPELO         CLEAR     39  27  62 N3        30.47S
$$

MSZ040-058-280000-
CENTRAL MISSISSIPPI

CITY           SKY/WX    TMP DP  RH WIND       PRES   REMARKS
JACKSON INTL   CLEAR     45  31  58 N9        30.47R
JACKSON HAWKNS CLEAR     45  30  55 N7        30.47R
MERIDIAN KEY   CLEAR     44  30  57 N7        30.45R
MERIDIAN NAS   CLEAR     44  30  57 N6        30.45S
RAYMOND        FAIR      45  39  81 MISG      30.47S
VICKSBURG      CLEAR     43  31  62 N8        30.48S
$$

MSZ059>079-280000-
SOUTH MISSISSIPPI

CITY           SKY/WX    TMP DP  RH WIND       PRES   REMARKS
BROOKHAVEN     FAIR      48  32  53 N6        30.45R
HATTIESBURG    CLEAR     52  31  44 N7        30.44R
MCCOMB         CLEAR     53  28  38 N6        30.42R
NATCHEZ        CLEAR     48  30  49 N6        30.46R
PINE BELT      CLEAR     48  28  46 NW5       30.45R
$$

MSZ080>082-280000-
COASTAL MISSISSIPPI

CITY           SKY/WX    TMP DP  RH WIND       PRES   REMARKS
BAY ST LOUIS   CLEAR     52  28  40 MISG      30.41R
BILOXI         CLEAR     54  32  42 VRB3      30.40R
PASCAGOULA     CLEAR     51  31  46 N8        30.40R
GULFPORT       CLEAR     54  30  40 N9        30.40R
$$



USA.gov is the U.S. government's official web portal to all federal, state and local government web resources and services.